Regional Weather Roundup
Issued by NWS

Home | Current Version | Previous Version | Graphics & Text | Print | Product List | Glossary On
Versions: 1 2 3 4 5 6 7 8 9 10 11 12 13 14 15 16 17 18 19 20 21 22 23 24 25 26 27 28 29 30 31 32 33 34 35 36 37 38 39 40 41 42 43 44 45 46 47 48 49 50
000
ASUS43 KFSD 240210
RWRSD

WEATHER ROUNDUP FOR SOUTH DAKOTA
NATIONAL WEATHER SERVICE SIOUX FALLS SD
900 PM CDT SAT JUL 23 2016

NOTE: "FAIR" INDICATES FEW OR NO CLOUDS BELOW 12,000 FEET WITH NO
SIGNIFICANT WEATHER AND/OR OBSTRUCTIONS TO VISIBILITY.


SDZ001>005-009-010-012>017-240300-
NORTHWEST AND NORTH CENTRAL SOUTH DAKOTA

CITY           SKY/WX    TMP DP  RH WIND       PRES   REMARKS
BUFFALO          N/A     81  40  23 NW17      29.90R
FAITH            N/A     82  37  20 N10       29.92R
MOBRIDGE       CLEAR     78  62  57 N5        29.83R
$$

SDZ012>016-024>037-041>051-057-063-072>074-240300-
SOUTHWEST AND SOUTH CENTRAL SOUTH DAKOTA

CITY           SKY/WX    TMP DP  RH WIND       PRES   REMARKS
RAPID CTY ARPT CLEAR     79  45  29 N6        29.97R
PIERRE         CLEAR     81  58  45 N7        29.84R
CUSTER         CLEAR     73  39  29 E12       30.13R
ELLSWORTH AFB  CLEAR     84  42  22 N10       29.96R
PHILIP         CLEAR     84  46  26 NE6       29.89R
PINE RIDGE     CLEAR     79  51  37 NE7       29.98R
WINNER         FAIR      84  57  39 N9        29.88R
$$

SDZ004>011-016>023-039-040-240300-
NORTHEAST SOUTH DAKOTA

CITY           SKY/WX    TMP DP  RH WIND       PRES   REMARKS
ABERDEEN       CLEAR     80  68  66 NW16      29.79R
WATERTOWN      MOCLDY    84  75  74 NW14      29.75R
BROOKINGS      CLEAR     84  78  82 S5        29.75S HX  95
SISSETON         N/A     80  77  90 S7        29.71R
$$

SDZ017-020-022-023-036>040-048>070-240300-
SOUTHEAST SOUTH DAKOTA

CITY           SKY/WX    TMP DP  RH WIND       PRES   REMARKS
SIOUX FALLS    PTCLDY    87  73  62 SW5       29.75R
HURON          CLEAR     82  71  69 N13       29.77R
CHAMBERLAIN    CLEAR     86  60  41 N16G23    29.84R
MITCHELL       CLEAR     86  75  69 N17       29.76R HX  95
YANKTON        CLEAR     86  75  70 SE3       29.72S HX  95
$$

ABBREVIATIONS USED IN REMARKS
   TC - TEMPERATURE IN CELSIUS
  WCI - WIND CHILL INDEX
   HX - HEAT INDEX
  VSB - VISIBILITY




USA.gov is the U.S. government's official web portal to all federal, state and local government web resources and services.